This is the latest recevied weather packets stored in our database for station/object JS2WAD-13. If no packets are shown the sender has not sent any weather packets the latest 10 day(s).
| Time | Temp. | Humidity | Pressure | Rain* | Wind** | Luminosity | Snow |
|---|---|---|---|---|---|---|---|
| 1777543299 | 15.56° C | 91% | 907.8 hPa | 0 mm | - | 0 W/m² | - |
| 1777543000 | 15.56° C | 91% | 907.7 hPa | 0 mm | - | 0 W/m² | - |
| 1777542700 | 15.56° C | 91% | 907.8 hPa | 0 mm | - | 0 W/m² | - |
| 1777542399 | 15.56° C | 91% | 907.9 hPa | 0 mm | - | 0 W/m² | - |
| 1777542100 | 15.56° C | 91% | 908 hPa | 0 mm | - | 0 W/m² | - |
| 1777541800 | 15.56° C | 90% | 908 hPa | 0 mm | - | 0 W/m² | - |
| 1777541500 | 15.56° C | 91% | 907.9 hPa | 0 mm | - | 0 W/m² | - |
| 1777541200 | 15.56° C | 91% | 908 hPa | 0 mm | - | 0 W/m² | - |
| 1777540900 | 15.56° C | 91% | 908 hPa | 0 mm | - | 0 W/m² | - |
| 1777540600 | 15.56° C | 91% | 908.1 hPa | 0 mm | - | 0 W/m² | - |
| 1777540300 | 15.56° C | 91% | 908.1 hPa | 0 mm | - | 0 W/m² | - |
| 1777540000 | 15.56° C | 91% | 908.1 hPa | 0 mm | - | 0 W/m² | - |
| 1777539700 | 15.56° C | 90% | 908.1 hPa | 0 mm | - | 5 W/m² | - |
| 1777539400 | 15.56° C | 90% | 908.2 hPa | 0 mm | - | 5 W/m² | - |
| 1777539100 | 15.56° C | 90% | 908.2 hPa | 0 mm | - | 5 W/m² | - |
| 1777538800 | 15.56° C | 90% | 908.2 hPa | 0 mm | - | 7 W/m² | - |
| 1777538500 | 15.56° C | 89% | 908.1 hPa | 0 mm | - | 7 W/m² | - |
| 1777538200 | 15.56° C | 89% | 908.1 hPa | 0 mm | - | 11 W/m² | - |
| 1777537900 | 15.56° C | 89% | 908.1 hPa | 0 mm | - | 12 W/m² | - |
| 1777537600 | 15.56° C | 88% | 908.2 hPa | 0 mm | - | 16 W/m² | - |
| 1777537300 | 15.56° C | 88% | 908 hPa | 0 mm | - | 18 W/m² | - |
| 1777537000 | 15.56° C | 88% | 908.2 hPa | 0 mm | - | 16 W/m² | - |
| 1777536700 | 15.56° C | 88% | 908.2 hPa | 0 mm | - | 16 W/m² | - |
| 1777536400 | 15.56° C | 88% | 908.1 hPa | 0 mm | - | 18 W/m² | - |
| 1777536100 | 15.56° C | 88% | 908.3 hPa | 0 mm | - | 19 W/m² | - |
* Rain latest hour (hover to see other rain measurements)
** Current wind speed in m/s (hover to see current wind gust speed)